Weather History for KSUA - August, 2014

Change the Weather History Date:

Sunday, August 17, 2014

  Actual Average Record
Temperature  
Mean Temperature 80 °F -  
Max Temperature 87 °F 90 °F 96 °F (1948)
Min Temperature 73 °F 74 °F 70 °F (1956)
Cooling Degree Days 15    
Growing Degree Days 30 (Base 50)    
Moisture  
Dew Point 74 °F    
Average Humidity 87    
Maximum Humidity 100    
Minimum Humidity 62    
Precipitation  
Precipitation 0.00 in - - ()
Sea Level Pressure  
Sea Level Pressure 30.09 in    
Wind  
Wind Speed 1 mph (South)    
Max Wind Speed 9 mph    
Max Gust Speed -    
Visibility 9 miles    
Events      
Averages and records for this station are not official NWS values.
T = Trace of Precipitation, MM = Missing Value Source: NWS Daily Summary

Daily Weather History Graph

Daily Weather History Graph

Search for Another Location

Airport or City:

Trip Planner

Search our weather history database for the weather conditions in past years. The results will help you decide how hot, cold, wet, or windy it might be!

Date:

Astronomy

Aug. 17, 2014 Rise Set
Actual Time 6:53 AM EDT 7:56 PM EDT
Civil Twilight 6:28 AM EDT 8:20 PM EDT
Nautical Twilight 6:00 AM EDT 8:49 PM EDT
Astronomical Twilight 5:30 AM EDT 9:18 PM EDT
Moon 12:20 AM EDT (8/17) 1:54 PM EDT (8/17)
Length of Visible Light 13h 51m
Length of Day
13h 03m
Waning Gibbous, 48% of the Moon is Illuminated
Aug 17
Waning Gibbous
Aug 25
New
Sep 2
First Quarter
Sep 8
Full
Sep 15
Last Quarter

Hourly Weather History & Observations

Time (EDT) Temp. Heat Index Dew Point Humidity Pressure Visibility Wind Dir Wind Speed Gust Speed Precip Events Conditions
12:15 AM 75.2 °F - 73.4 °F 94% 30.11 in 10.0 mi Calm Calm - N/A   Clear
12:35 AM 75.2 °F - 73.4 °F 94% 30.11 in 10.0 mi Calm Calm - N/A   Clear
12:55 AM 75.2 °F - 73.4 °F 94% 30.10 in 10.0 mi SSW 3.5 mph - N/A   Clear
1:15 AM 75.2 °F - 73.4 °F 94% 30.11 in 10.0 mi Calm Calm - N/A   Clear
1:35 AM 75.2 °F - 73.4 °F 94% 30.10 in 10.0 mi Calm Calm - N/A   Clear
1:55 AM 73.4 °F - 73.4 °F 100% 30.10 in 10.0 mi Calm Calm - N/A   Clear
2:15 AM 73.4 °F - 73.4 °F 100% 30.09 in 10.0 mi Calm Calm - N/A   Clear
2:35 AM 73.4 °F - 71.6 °F 94% 30.09 in 10.0 mi Calm Calm - N/A   Clear
2:55 AM 73.4 °F - 73.4 °F 100% 30.08 in 10.0 mi Calm Calm - N/A   Clear
3:15 AM 73.4 °F - 71.6 °F 94% 30.08 in 10.0 mi Calm Calm - N/A   Clear
3:35 AM 73.4 °F - 71.6 °F 94% 30.07 in 10.0 mi Calm Calm - N/A   Clear
3:55 AM 73.4 °F - 71.6 °F 94% 30.08 in 10.0 mi Calm Calm - N/A   Clear
4:15 AM 73.4 °F - 73.4 °F 100% 30.07 in 10.0 mi Calm Calm - N/A   Clear
4:35 AM 73.4 °F - 73.4 °F 100% 30.07 in 10.0 mi Calm Calm - N/A   Clear
4:55 AM 73.4 °F - 73.4 °F 100% 30.08 in 10.0 mi Calm Calm - N/A   Clear
5:15 AM 73.4 °F - 71.6 °F 94% 30.08 in 10.0 mi Calm Calm - N/A   Clear
5:35 AM 73.4 °F - 71.6 °F 94% 30.09 in 10.0 mi Calm Calm - N/A   Clear
5:55 AM 73.4 °F - 71.6 °F 94% 30.09 in 10.0 mi Calm Calm - N/A   Clear
6:15 AM 73.4 °F - 73.4 °F 100% 30.10 in 10.0 mi Calm Calm - N/A   Clear
6:47 AM 75.2 °F - 73.4 °F 94% 30.10 in 7.0 mi WSW 3.5 mph - N/A   Partly Cloudy
7:47 AM 77.0 °F - 75.2 °F 94% 30.12 in 7.0 mi WSW 3.5 mph - N/A   Partly Cloudy
8:55 AM 82.4 °F 90.9 °F 77.0 °F 84% 30.13 in 5.0 mi Calm Calm - N/A   Haze
9:47 AM 84.2 °F 94.1 °F 77.0 °F 79% 30.13 in 5.0 mi South 6.9 mph - N/A   Haze
10:47 AM 86.0 °F 93.4 °F 73.4 °F 66% 30.14 in 5.0 mi Calm Calm - N/A   Haze
11:47 AM 86.0 °F 91.8 °F 71.6 °F 62% 30.14 in 5.0 mi West 8.1 mph - N/A   Haze
12:47 PM 86.0 °F 95.1 °F 75.2 °F 70% 30.12 in 7.0 mi East 8.1 mph - N/A   Mostly Cloudy
1:47 PM 87.8 °F 97.6 °F 75.2 °F 66% 30.12 in 7.0 mi East 9.2 mph - N/A   Scattered Clouds
2:47 PM 87.8 °F 97.6 °F 75.2 °F 66% 30.10 in 7.0 mi East 9.2 mph - N/A   Scattered Clouds
5:47 PM 84.2 °F 90.9 °F 73.4 °F 70% 30.06 in 7.0 mi SSE 4.6 mph - N/A   Mostly Cloudy
6:47 PM 84.2 °F 90.9 °F 73.4 °F 70% 30.06 in 7.0 mi SSE 4.6 mph - N/A   Mostly Cloudy
8:15 PM 80.6 °F 85.4 °F 73.4 °F 79% 30.07 in 7.0 mi Calm Calm - N/A   Clear
8:35 PM 80.6 °F 85.4 °F 73.4 °F 79% 30.06 in 10.0 mi South 4.6 mph - N/A   Clear
8:55 PM 80.6 °F 85.4 °F 73.4 °F 79% 30.07 in 10.0 mi South 3.5 mph - N/A   Clear
9:15 PM 80.6 °F 86.2 °F 75.2 °F 84% 30.07 in 10.0 mi Calm Calm - N/A   Clear
9:35 PM 80.6 °F 86.2 °F 75.2 °F 84% 30.07 in 10.0 mi South 3.5 mph - N/A   Clear
9:55 PM 80.6 °F 86.2 °F 75.2 °F 84% 30.08 in 10.0 mi South 3.5 mph - N/A   Clear
10:15 PM 80.6 °F 86.2 °F 75.2 °F 84% 30.09 in 10.0 mi Calm Calm - N/A   Clear
10:35 PM 80.6 °F 86.2 °F 75.2 °F 84% 30.10 in 10.0 mi Calm Calm - N/A   Clear
10:55 PM 80.6 °F 86.2 °F 75.2 °F 84% 30.10 in 10.0 mi Calm Calm - N/A   Clear
11:15 PM 78.8 °F - 75.2 °F 89% 30.10 in 10.0 mi Calm Calm - N/A   Clear
11:35 PM 78.8 °F - 73.4 °F 83% 30.11 in 10.0 mi Calm Calm - N/A   Clear
11:55 PM 78.8 °F - 73.4 °F 83% 30.11 in 7.0 mi Calm Calm - N/A   Clear